This demonstration page uses our WeatherBlox Daily Observations layout. Learn more.

Left ArrowRight Arrow

Hourly Observations for January 19, 2019

Temp ( °F °C ) Dew Point ( °F °C ) Humidity (%) Winds ( mph kmh ) Pressure ( in mb ) Visibility ( mi km ) Precip ( " mm )
12:50 am 00:50 Cloudy 46 8 46 8 100 100 Calm 30.06 1018 8 13 0.00 0.00
12:53 am 00:53 Cloudy 46 7.8 46 7.8 100 100 Calm 30.02 1017 8 13 0.00 0.00
1:05 am 01:05 Cloudy 47 8.3 47 8.3 100 100 Calm 30.06 1018 7 11 0.00 0.00
1:21 am 01:21 Cloudy 47 8.3 47 8.3 100 100 Calm 30.06 1018 9 14 0.00 0.00
1:32 am 01:32 Cloudy 48 8.9 48 8.9 100 100 Calm 30.06 1018 8 13 0.00 0.00
1:53 am 01:53 Cloudy 49 9.4 49 9.4 100 100 Calm 30.01 1016 8 13 0.00 0.00
2:14 am 02:14 Mostly Cloudy 52 11.1 52 11.1 100 100 VRB 3 6 30.03 1017 8 13 0.00 0.00
2:37 am 02:37 Cloudy 52 11.1 52 11.1 100 100 SE 7 11 30.03 1017 7 11 0.00 0.03
2:53 am 02:53 Cloudy with Mist and Fog 52 11.1 52 11.1 100 100 SE 8 13 30.00 1016 5 8 0.00 0.03
3:53 am 03:53 Cloudy with Mist and Fog 52 11.1 52 11.1 100 100 S 6 9 29.99 1016 4 6 0.00 0.00
4:12 am 04:12 Cloudy with Mist and Fog 52 11.1 52 11.1 100 100 Calm 30.03 1017 2 3 0.00 0.00
4:26 am 04:26 Cloudy with Mist and Fog 52 11.1 52 11.1 100 100 Calm 30.00 1016 3 5 0.00 0.00
4:53 am 04:53 Cloudy with Mist and Fog 52 11.1 52 11.1 100 100 Calm 29.94 1014 5 8 0.00 0.00
5:53 am 05:53 Cloudy 53 11.7 53 11.7 100 100 ESE 8 13 29.91 1013 8 13 0.00 0.00
6:53 am 06:53 Cloudy with Mist and Fog 53 11.7 53 11.7 100 100 ESE 6 9 29.91 1013 3 5 0.00 0.00
7:53 am 07:53 Cloudy with Mist and Fog 53 11.7 53 11.7 100 100 ESE 7 11 29.90 1012 1 2 0.00 0.00
8:36 am 08:36 Cloudy with Mist and Fog 53 11.7 53 11.7 100 100 ESE 7 11 29.88 1012 2 3 0.00 0.00
8:53 am 08:53 Cloudy with Mist and Fog 54 12.2 54 12.2 100 100 SE 9 15 29.88 1012 3 4 0.00 0.00
9:25 am 09:25 Cloudy with Light Rain 54 12.2 54 12.2 100 100 SE 9 15 29.88 1012 3 5 0.11 2.79
9:53 am 09:53 Cloudy with Mist and Fog 55 12.8 55 12.8 100 100 SSE 8 13 29.87 1012 5 8 0.11 2.79
10:51 am 10:51 Cloudy with Light Rain 57 14 57 14 100 100 SSE 12 19 29.88 1012 3 4 0.02 0.51
10:52 am 10:52 Cloudy with Light Rain 57 13.9 57 13.9 100 100 S 12 19 29.87 1012 3 4 0.02 0.51
11:13 am 11:13 Cloudy with Mist and Fog 58 14.4 58 14.4 100 100 SSE 12 19 29.85 1011 5 8 0.00 0.03
11:53 am 11:53 Cloudy with Mist and Fog 60 15.6 60 15.6 100 100 S 13 20 29.82 1010 6 10 0.00 0.03
12:53 pm 12:53 Cloudy with Light Rain 61 16.1 60 15.6 97 97 S 14 22 29.77 1008 6 10 0.08 2.03
1:53 pm 13:53 Cloudy 62 16.7 60 15.6 93 93 S 15 24 29.69 1005 10 16 0.00 0.03
2:53 pm 14:53 Cloudy with Light Rain 63 17.2 60 15.6 90 90 S 12 19 29.64 1004 10 16 0.00 0.03
3:53 pm 15:53 Cloudy with Rain 61 16.1 60 15.6 97 97 SSE 12 19 29.59 1002 7 11 0.05 1.27
4:53 pm 16:53 Cloudy with Heavy Rain 60 15.6 60 15.6 100 100 SSE 10 17 29.58 1002 3 5 0.18 4.57
5:53 pm 17:53 Cloudy with Light Rain 59 15 58 14.4 96 96 SSE 20 31 29.50 999 9 14 0.15 3.81
6:53 pm 18:53 Cloudy with Heavy Rain 60 15.6 59 15 96 96 S 7 11 29.54 1001 5 8 0.23 5.84
7:53 pm 19:53 Mostly Cloudy 59 15 59 15 100 100 WSW 7 11 29.55 1001 10 16 0.06 1.52
8:53 pm 20:53 Partly Cloudy 58 14.4 54 12.2 87 87 W 13 20 29.56 1001 10 16 0.00 0.00
9:53 pm 21:53 Cloudy 56 13.3 53 11.7 90 90 W 7 11 29.57 1001 10 16 0.00 0.00
10:05 pm 22:05 Cloudy with Light Rain 55 12.8 54 12.2 96 96 WNW 8 13 29.59 1002 6 10 0.01 0.25
10:20 pm 22:20 Cloudy with Light Rain 55 12.8 53 11.7 93 93 W 10 17 29.59 1002 10 16 0.01 0.25
10:53 pm 22:53 Mostly Cloudy 54 12.2 51 10.6 90 90 WSW 7 11 29.58 1002 10 16 0.02 0.51
11:53 pm 23:53 Mostly Cloudy 53 11.7 49 9.4 86 86 W 10 17 29.60 1002 10 16 0.00 0.00

Powered by AerisWeather